Date String (YYYY-MM-DD hh:mm:ss) UTC,Instrument flags,Ambient pressure (hPa),Sample flow (lpm),Bypass flow (lpm),Sample temperature (°C),Ambient temperature (°C),ASC tube jacket temperature (°C),LED temperature (°C),Box temperature (°C),Sample RH (%),Span deviation,Mass concentration (μg/m³),Mass concentration (μg/m³),Mass concentration (μg/m³)
DateTimeUTC,F1_M11,P_M11,Q1_M11,Q2_M11,T1_M11,T2_M11,T3_M11,T4_M11,T5_M11,U1_M11,ZSPAN_M11,X0_M11,X2_M11,X1_M11
2022-01-19 17:00:00,,0831.0,5.01,0.00,22.2,21.8,00.0,31.3,23.7,12.4,0000.0,0006.45,0004.45,0004.34
2022-01-19 17:01:00,,0831.0,4.98,0.00,22.1,21.6,00.0,31.3,23.7,12.5,0000.0,0006.48,0004.47,0004.36
2022-01-19 17:02:00,,0831.0,5.01,0.00,22.1,21.5,00.0,31.2,23.6,12.5,0000.0,0006.59,0004.51,0004.39
2022-01-19 17:03:00,,0831.0,4.98,0.00,22.1,21.8,00.0,31.2,23.7,12.5,0000.0,0006.76,0004.56,0004.41
2022-01-19 17:04:00,,0831.1,5.00,0.00,22.2,22.6,00.0,31.3,24.0,12.4,0000.0,0006.86,0004.58,0004.43
2022-01-19 17:05:00,,0831.2,5.00,0.00,22.4,23.2,00.0,31.3,24.3,12.2,0000.0,0006.85,0004.57,0004.41
2022-01-19 17:06:00,,0831.2,5.00,0.00,22.4,23.1,00.0,31.3,24.3,12.2,0000.0,0006.77,0004.54,0004.40
2022-01-19 17:07:00,,0831.2,5.00,0.00,22.4,22.8,00.0,31.3,24.2,12.1,0000.0,0006.72,0004.53,0004.39
2022-01-19 17:08:00,,0831.2,4.99,0.00,22.4,22.6,00.0,31.3,24.1,12.2,0000.0,0006.76,0004.54,0004.40
2022-01-19 17:09:00,,0831.2,5.01,0.00,22.3,22.3,00.0,31.3,24.0,12.2,0000.0,0006.76,0004.55,0004.40
2022-01-19 17:10:00,,0831.2,4.99,0.00,22.3,22.1,00.0,31.3,23.9,12.2,0000.0,0006.79,0004.55,0004.41
2022-01-19 17:11:00,,0831.2,5.00,0.00,22.2,22.0,00.0,31.3,23.8,12.2,0000.0,0006.77,0004.55,0004.41
2022-01-19 17:12:00,,0831.2,5.01,0.00,22.2,21.8,00.0,31.3,23.8,12.2,0000.0,0006.74,0004.53,0004.39
2022-01-19 17:13:00,,0831.2,4.99,0.00,22.1,21.7,00.0,31.3,23.7,12.3,0000.0,0006.64,0004.49,0004.35
2022-01-19 17:14:00,,0831.2,5.02,0.00,22.1,21.6,00.0,31.3,23.6,12.3,0000.0,0006.46,0004.42,0004.29
2022-01-19 17:15:00,,0831.2,4.99,0.00,22.1,21.7,00.0,31.2,23.6,12.3,0000.0,0006.37,0004.38,0004.24
2022-01-19 17:16:00,,0831.1,4.99,0.00,22.2,22.4,00.0,31.3,23.9,12.2,0000.0,0006.29,0004.35,0004.22
2022-01-19 17:17:00,,0831.2,5.01,0.00,22.3,23.1,00.0,31.3,24.2,12.1,0000.0,0006.20,0004.31,0004.18
2022-01-19 17:18:00,,0831.2,5.01,0.00,22.5,23.2,00.0,31.3,24.4,11.9,0000.0,0006.11,0004.26,0004.14
2022-01-19 17:19:00,,0831.2,4.99,0.00,22.4,22.9,00.0,31.3,24.3,11.9,0000.0,0006.04,0004.22,0004.08
2022-01-19 17:20:00,,0831.2,5.00,0.00,22.4,22.6,00.0,31.3,24.1,11.9,0000.0,0005.99,0004.18,0004.03
2022-01-19 17:21:00,,0831.2,5.00,0.00,22.4,22.4,00.0,31.3,24.0,12.0,0000.0,0005.83,0004.11,0003.97
2022-01-19 17:22:00,,0831.3,4.99,0.00,22.3,22.2,00.0,31.3,23.9,12.0,0000.0,0005.67,0004.05,0003.93
2022-01-19 17:23:00,,0831.4,5.01,0.00,22.2,22.0,00.0,31.3,23.9,12.0,0000.0,0005.56,0004.00,0003.89
2022-01-19 17:24:00,,0831.4,4.99,0.00,22.2,21.8,00.0,31.3,23.8,12.0,0000.0,0005.64,0003.98,0003.85
2022-01-19 17:25:00,,0831.4,5.00,0.00,22.1,21.7,00.0,31.3,23.7,12.0,0000.0,0005.56,0003.96,0003.84
2022-01-19 17:26:00,,0831.4,5.00,0.00,22.1,21.6,00.0,31.3,23.6,12.1,0000.0,0005.48,0003.92,0003.82
2022-01-19 17:27:00,,0831.5,5.01,0.00,22.0,21.5,00.0,31.2,23.6,12.1,0000.0,0005.41,0003.89,0003.79
2022-01-19 17:28:00,,0831.5,4.99,0.00,22.0,21.7,00.0,31.2,23.7,12.1,0000.0,0005.39,0003.87,0003.77
2022-01-19 17:29:00,,0831.5,4.99,0.00,22.2,22.5,00.0,31.3,24.0,12.0,0000.0,0005.38,0003.86,0003.75
2022-01-19 17:30:00,,0831.6,5.01,0.00,22.3,23.2,00.0,31.3,24.3,11.9,0000.0,0005.33,0003.84,0003.74
2022-01-19 17:31:00,,0831.6,5.00,0.00,22.4,23.1,00.0,31.3,24.4,11.8,0000.0,0005.26,0003.82,0003.73
2022-01-19 17:32:00,,0831.6,5.00,0.00,22.4,22.8,00.0,31.3,24.3,11.8,0000.0,0005.23,0003.80,0003.71
2022-01-19 17:33:00,,0831.6,5.00,0.00,22.4,22.6,00.0,31.3,24.1,11.8,0000.0,0005.28,0003.80,0003.70
2022-01-19 17:34:00,,0831.6,5.00,0.00,22.4,22.3,00.0,31.3,24.0,11.8,0000.0,0005.36,0003.81,0003.69
2022-01-19 17:35:00,,0831.6,5.01,0.00,22.3,22.1,00.0,31.3,23.9,11.9,0000.0,0005.27,0003.81,0003.69
2022-01-19 17:36:00,,0831.6,5.00,0.00,22.3,22.0,00.0,31.3,23.9,11.9,0000.0,0005.23,0003.79,0003.67
2022-01-19 17:37:00,,0831.6,5.00,0.00,22.2,21.8,00.0,31.3,23.8,11.9,0000.0,0005.22,0003.77,0003.65
2022-01-19 17:38:00,,0831.6,4.99,0.00,22.1,21.7,00.0,31.3,23.7,11.9,0000.0,0005.15,0003.75,0003.63
2022-01-19 17:39:00,,0831.6,5.00,0.00,22.1,21.5,00.0,31.3,23.6,11.9,0000.0,0005.13,0003.73,0003.62
2022-01-19 17:40:00,,0831.6,5.01,0.00,22.0,21.4,00.0,31.2,23.6,11.9,0000.0,0005.11,0003.73,0003.61
2022-01-19 17:41:00,,0831.6,5.00,0.00,22.1,21.8,00.0,31.2,23.7,11.9,0000.0,0005.09,0003.72,0003.60
2022-01-19 17:42:00,,0831.6,5.00,0.00,22.2,22.6,00.0,31.3,24.0,11.8,0000.0,0005.11,0003.72,0003.61
2022-01-19 17:43:00,,0831.6,5.00,0.00,22.4,23.2,00.0,31.3,24.3,11.7,0000.0,0005.14,0003.73,0003.61
2022-01-19 17:44:00,,0831.7,5.00,0.00,22.4,23.1,00.0,31.3,24.3,11.7,0000.0,0005.09,0003.73,0003.62
2022-01-19 17:45:00,,0831.7,5.00,0.00,22.4,22.8,00.0,31.3,24.2,11.7,0000.0,0005.06,0003.73,0003.63
2022-01-19 17:46:00,,0831.6,5.00,0.00,22.4,22.5,00.0,31.3,24.1,11.7,0000.0,0005.03,0003.75,0003.66
2022-01-19 17:47:00,,0831.6,4.98,0.00,22.3,22.3,00.0,31.3,24.0,11.7,0000.0,0005.08,0003.78,0003.69
2022-01-19 17:48:00,,0831.6,5.00,0.00,22.3,22.1,00.0,31.3,23.9,11.7,0000.0,0005.12,0003.81,0003.72
2022-01-19 17:49:00,,0831.6,5.00,0.00,22.2,21.9,00.0,31.3,23.8,11.8,0000.0,0005.20,0003.85,0003.75
2022-01-19 17:50:00,,0831.6,4.99,0.00,22.2,21.8,00.0,31.3,23.7,11.8,0000.0,0005.23,0003.89,0003.78
2022-01-19 17:51:00,,0831.6,5.02,0.00,22.1,21.6,00.0,31.3,23.7,11.8,0000.0,0005.31,0003.92,0003.81
2022-01-19 17:52:00,,0831.6,4.99,0.00,22.1,21.5,00.0,31.2,23.6,11.8,0000.0,0005.30,0003.94,0003.84
2022-01-19 17:53:00,,0831.6,5.01,0.00,22.0,21.4,00.0,31.2,23.5,11.8,0000.0,0005.33,0003.96,0003.86
2022-01-19 17:54:00,,0831.6,5.00,0.00,22.0,21.6,00.0,31.2,23.6,11.9,0000.0,0005.39,0003.98,0003.87
2022-01-19 17:55:00,,0831.6,5.00,0.00,22.1,22.3,00.0,31.2,23.9,11.8,0000.0,0005.39,0003.98,0003.87
2022-01-19 17:56:00,,0831.6,5.01,0.00,22.3,23.1,00.0,31.3,24.2,11.7,0000.0,0005.36,0003.97,0003.86
2022-01-19 17:57:00,,0831.6,4.98,0.00,22.4,23.1,00.0,31.3,24.3,11.6,0000.0,0005.38,0003.94,0003.83
2022-01-19 17:58:00,,0831.6,5.00,0.00,22.4,22.8,00.0,31.3,24.2,11.6,0000.0,0005.33,0003.89,0003.78
2022-01-19 17:59:00,,0831.6,5.00,0.00,22.3,22.5,00.0,31.3,24.1,11.7,0000.0,0005.27,0003.85,0003.74
